| time (UTC) | temp F | wind direction | speed MPH | gust MPH | rain 1hr in | rain 24hr in | rain mn in | humidity % | barometer mb |
| 20260508104658 | 43 | 317 | 0.0 | 0.0 | 0.00 | 0.00 | 0.00 | 66 | 1006.8 |
| 20260508104158 | 43 | 317 | 0.0 | 0.0 | 0.00 | 0.00 | 0.00 | 66 | 1006.8 |
| 20260508103752 | 43 | 288 | 0.0 | 0.0 | 0.00 | 0.00 | 0.00 | 66 | 1006.8 |
| 20260508103658 | 43 | 288 | 0.0 | 0.0 | 0.00 | 0.00 | 0.00 | 66 | 1006.8 |
| 20260508103200 | 43 | 219 | 0.0 | 0.0 | 0.00 | 0.00 | 0.00 | 66 | 1006.8 |
| 20260508102205 | 42 | 219 | 3.0 | 3.0 | 0.00 | 0.00 | 0.00 | 67 | 1006.9 |
| 20260508101158 | 42 | 240 | 2.0 | 5.0 | 0.00 | 0.00 | 0.00 | 68 | 1006.9 |
| 20260508100658 | 42 | 203 | 0.0 | 0.0 | 0.00 | 0.00 | 0.00 | 69 | 1006.9 |
| 20260508100159 | 42 | 203 | 0.0 | 0.0 | 0.00 | 0.00 | 0.00 | 69 | 1006.9 |
| 20260508095305 | 41 | 203 | 0.0 | 0.0 | 0.00 | 0.00 | 0.00 | 71 | 1006.9 |
| 20260508095202 | 41 | 203 | 0.0 | 0.0 | 0.00 | 0.00 | 0.00 | 71 | 1006.9 |
| 20260508094158 | 41 | 203 | 0.0 | 0.0 | 0.00 | 0.00 | 0.00 | 73 | 1006.9 |
| 20260508093658 | 40 | 203 | 0.0 | 0.0 | 0.00 | 0.00 | 0.00 | 75 | 1007.0 |
| 20260508093158 | 40 | 203 | 0.0 | 0.0 | 0.00 | 0.00 | 0.00 | 76 | 1007.0 |
| 20260508092159 | 40 | 203 | 0.0 | 0.0 | 0.00 | 0.00 | 0.00 | 76 | 1007.0 |
| 20260508091659 | 41 | 203 | 0.0 | 0.0 | 0.00 | 0.00 | 0.00 | 76 | 1007.0 |
| 20260508091158 | 41 | 203 | 0.0 | 0.0 | 0.00 | 0.00 | 0.00 | 76 | 1007.0 |
| 20260508090659 | 41 | 203 | 0.0 | 0.0 | 0.00 | 0.00 | 0.00 | 75 | 1006.9 |
| 20260508090200 | 41 | 203 | 0.0 | 0.0 | 0.00 | 0.00 | 0.00 | 74 | 1006.9 |
| 20260508085659 | 41 | 203 | 0.0 | 0.0 | 0.00 | 0.00 | 0.00 | 74 | 1007.0 |
| 20260508085159 | 41 | 203 | 0.0 | 0.0 | 0.00 | 0.00 | 0.00 | 74 | 1007.0 |
| 20260508084658 | 41 | 203 | 0.0 | 0.0 | 0.00 | 0.00 | 0.00 | 75 | 1006.9 |
| 20260508084158 | 41 | 203 | 0.0 | 0.0 | 0.00 | 0.00 | 0.00 | 76 | 1007.0 |
| 20260508083658 | 41 | 203 | 0.0 | 0.0 | 0.00 | 0.00 | 0.00 | 78 | 1006.9 |
| 20260508083158 | 41 | 203 | 0.0 | 0.0 | 0.00 | 0.00 | 0.00 | 79 | 1006.9 |
| 20260508082209 | 40 | 203 | 0.0 | 0.0 | 0.00 | 0.00 | 0.00 | 80 | 1007.0 |
| 20260508081158 | 41 | 203 | 0.0 | 0.0 | 0.00 | 0.00 | 0.00 | 80 | 1007.0 |
| 20260508080659 | 40 | 203 | 0.0 | 0.0 | 0.00 | 0.00 | 0.00 | 80 | 1007.0 |
| 20260508080159 | 40 | 203 | 0.0 | 0.0 | 0.00 | 0.00 | 0.00 | 80 | 1007.0 |
| 20260508075159 | 40 | 203 | 0.0 | 0.0 | 0.00 | 0.00 | 0.00 | 80 | 1007.1 |
| 20260508074658 | 41 | 203 | 0.0 | 0.0 | 0.00 | 0.00 | 0.00 | 79 | 1007.1 |
| 20260508074158 | 41 | 203 | 0.0 | 0.0 | 0.00 | 0.00 | 0.00 | 78 | 1007.1 |
| 20260508073658 | 42 | 203 | 0.0 | 0.0 | 0.00 | 0.00 | 0.00 | 76 | 1007.1 |
| 20260508073159 | 41 | 203 | 0.0 | 0.0 | 0.00 | 0.00 | 0.00 | 76 | 1007.2 |
| 20260508072159 | 41 | 217 | 0.0 | 0.0 | 0.00 | 0.00 | 0.00 | 78 | 1007.2 |
| 20260508071200 | 41 | 217 | 0.0 | 0.0 | 0.00 | 0.00 | 0.00 | 78 | 1007.3 |
| 20260508070658 | 41 | 217 | 0.0 | 0.0 | 0.00 | 0.00 | 0.00 | 79 | 1007.3 |
| 20260508070158 | 41 | 217 | 0.0 | 0.0 | 0.00 | 0.00 | 0.00 | 79 | 1007.3 |
| 20260508065200 | 41 | 217 | 0.0 | 0.0 | 0.00 | 0.00 | 0.00 | 78 | 1007.3 |
| 20260508064658 | 41 | 217 | 0.0 | 0.0 | 0.00 | 0.00 | 0.00 | 77 | 1007.3 |
| 20260508064158 | 41 | 217 | 0.0 | 0.0 | 0.00 | 0.00 | 0.00 | 77 | 1007.4 |
| 20260508063658 | 41 | 217 | 0.0 | 0.0 | 0.00 | 0.00 | 0.00 | 76 | 1007.4 |
| 20260508063158 | 42 | 217 | 0.0 | 0.0 | 0.00 | 0.00 | 0.00 | 75 | 1007.4 |
| 20260508062340 | 42 | 217 | 0.0 | 0.0 | 0.00 | 0.00 | 0.00 | 74 | 1007.5 |
| 20260508062159 | 42 | 217 | 0.0 | 0.0 | 0.00 | 0.00 | 0.00 | 74 | 1007.5 |
| 20260508061159 | 42 | 217 | 0.0 | 0.0 | 0.00 | 0.00 | 0.00 | 73 | 1007.6 |
| 20260508060659 | 42 | 217 | 0.0 | 0.0 | 0.00 | 0.00 | 0.00 | 72 | 1007.6 |
| 20260508060158 | 42 | 217 | 0.0 | 0.0 | 0.00 | 0.00 | 0.00 | 72 | 1007.6 |
| 20260508055659 | 42 | 217 | 0.0 | 0.0 | 0.00 | 0.00 | 0.00 | 71 | 1007.6 |
| 20260508055159 | 42 | 217 | 0.0 | 0.0 | 0.00 | 0.00 | 0.00 | 71 | 1007.7 |
| 20260508054659 | 42 | 217 | 0.0 | 0.0 | 0.00 | 0.00 | 0.00 | 71 | 1007.6 |
| 20260508054159 | 43 | 217 | 0.0 | 0.0 | 0.00 | 0.00 | 0.00 | 71 | 1007.7 |
| 20260508053659 | 43 | 217 | 0.0 | 0.0 | 0.00 | 0.00 | 0.00 | 71 | 1007.7 |
| 20260508053159 | 43 | 217 | 0.0 | 0.0 | 0.00 | 0.00 | 0.00 | 71 | 1007.9 |
| 20260508051658 | 44 | 217 | 0.0 | 0.0 | 0.00 | 0.00 | 0.00 | 70 | 1007.7 |
| 20260508051159 | 44 | 217 | 0.0 | 0.0 | 0.00 | 0.00 | 0.00 | 70 | 1007.7 |
| 20260508050659 | 44 | 217 | 0.0 | 0.0 | 0.00 | 0.00 | 0.00 | 69 | 1007.7 |
| 20260508050252 | 44 | 217 | 0.0 | 0.0 | 0.00 | 0.00 | 0.00 | 69 | 1007.7 |
| 20260508050159 | 44 | 217 | 0.0 | 0.0 | 0.00 | 0.00 | 0.00 | 69 | 1007.7 |
| 20260508045205 | 44 | 217 | 0.0 | 0.0 | 0.00 | 0.00 | 0.00 | 68 | 1007.9 |
| 20260508044700 | 44 | 217 | 0.0 | 0.0 | 0.00 | 0.00 | 0.00 | 68 | 1007.9 |
| 20260508044159 | 44 | 217 | 0.0 | 0.0 | 0.00 | 0.00 | 0.00 | 67 | 1007.9 |
| 20260508043659 | 45 | 217 | 0.0 | 0.0 | 0.00 | 0.00 | 0.00 | 67 | 1008.0 |
| 20260508042705 | 45 | 217 | 0.0 | 0.0 | 0.00 | 0.00 | 0.00 | 68 | 1008.0 |
| 20260508042201 | 45 | 217 | 0.0 | 0.0 | 0.00 | 0.00 | 0.00 | 66 | 1008.0 |
| 20260508022158 | 52 | 217 | 0.0 | 0.0 | 0.00 | 0.00 | 0.00 | 53 | 1008.0 |
| 20260508021658 | 52 | 217 | 0.0 | 0.0 | 0.00 | 0.00 | 0.00 | 51 | 1007.9 |
| 20260508021158 | 53 | 217 | 0.0 | 0.0 | 0.00 | 0.00 | 0.00 | 51 | 1007.7 |
| 20260508020659 | 53 | 217 | 0.0 | 0.0 | 0.00 | 0.00 | 0.00 | 50 | 1007.6 |
| 20260508020158 | 53 | 217 | 0.0 | 0.0 | 0.00 | 0.00 | 0.00 | 50 | 1007.5 |
| 20260508013159 | 55 | 217 | 0.0 | 0.0 | 0.00 | 0.00 | 0.00 | 44 | 1007.2 |
| 20260508012704 | 55 | 217 | 0.0 | 0.0 | 0.00 | 0.00 | 0.00 | 43 | 1007.2 |
| 20260508012200 | 56 | 217 | 0.0 | 0.0 | 0.00 | 0.00 | 0.00 | 43 | 1007.2 |
| 20260508005203 | 57 | 217 | 0.0 | 0.0 | 0.00 | 0.00 | 0.00 | 40 | 1007.5 |
| 20260507235657 | 59 | 303 | 0.0 | 9.0 | 0.00 | 0.00 | 0.00 | 37 | 1007.6 |
| 20260507235158 | 59 | 292 | 0.0 | 0.0 | 0.00 | 0.00 | 0.00 | 38 | 1007.6 |
| 20260507234157 | 58 | 268 | 0.0 | 7.0 | 0.00 | 0.00 | 0.00 | 37 | 1007.7 |
| 20260507224158 | 59 | 244 | 7.0 | 10.0 | 0.00 | 0.00 | 0.00 | 37 | 1008.3 |
| 20260507222657 | 57 | 316 | 7.0 | 7.0 | 0.00 | 0.00 | 0.00 | 37 | 1008.4 |
| 20260507221657 | 58 | 307 | 7.0 | 9.0 | 0.00 | 0.00 | 0.00 | 36 | 1008.3 |
| 20260507220657 | 57 | 264 | 6.0 | 16.0 | 0.00 | 0.00 | 0.00 | 37 | 1008.3 |
| 20260507220157 | 57 | 278 | 6.0 | 6.0 | 0.00 | 0.00 | 0.00 | 37 | 1008.4 |
| 20260507215657 | 57 | 300 | 7.0 | 11.0 | 0.00 | 0.00 | 0.00 | 37 | 1008.4 |
| 20260507214658 | 58 | 282 | 5.0 | 10.0 | 0.00 | 0.00 | 0.00 | 39 | 1008.4 |
| 20260507214157 | 57 | 285 | 0.0 | 3.0 | 0.00 | 0.00 | 0.00 | 39 | 1008.5 |
| 20260507213657 | 57 | 312 | 6.0 | 8.0 | 0.00 | 0.00 | 0.00 | 38 | 1008.5 |
| 20260507213158 | 57 | 350 | 11.0 | 13.0 | 0.00 | 0.00 | 0.00 | 37 | 1008.6 |
| 20260507212657 | 57 | 358 | 0.0 | 0.0 | 0.00 | 0.00 | 0.00 | 38 | 1008.6 |
| 20260507211658 | 57 | 258 | 5.0 | 12.0 | 0.00 | 0.00 | 0.00 | 37 | 1008.7 |
| 20260507211200 | 57 | 4 | 3.0 | 11.0 | 0.00 | 0.00 | 0.00 | 38 | 1008.8 |
| 20260507210658 | 57 | 312 | 0.0 | 8.0 | 0.00 | 0.00 | 0.00 | 38 | 1008.8 |
| 20260507210200 | 57 | 281 | 0.0 | 11.0 | 0.00 | 0.00 | 0.00 | 38 | 1008.8 |
| 20260507204157 | 56 | 358 | 0.0 | 2.0 | 0.00 | 0.00 | 0.00 | 39 | 1009.1 |
| 20260507203657 | 56 | 338 | 0.0 | 3.0 | 0.00 | 0.00 | 0.00 | 38 | 1009.2 |
| 20260507203157 | 56 | 319 | 0.0 | 2.0 | 0.00 | 0.00 | 0.00 | 40 | 1009.3 |
| 20260507202657 | 56 | 327 | 5.0 | 6.0 | 0.00 | 0.00 | 0.00 | 40 | 1009.3 |
| 20260507202200 | 55 | 358 | 5.0 | 13.0 | 0.00 | 0.00 | 0.00 | 38 | 1009.2 |
| 20260507201700 | 55 | 317 | 0.0 | 9.0 | 0.00 | 0.00 | 0.00 | 38 | 1009.4 |
| 20260507201159 | 55 | 313 | 0.0 | 7.0 | 0.00 | 0.00 | 0.00 | 39 | 1009.5 |
| 20260507200700 | 55 | 260 | 0.0 | 10.0 | 0.00 | 0.00 | 0.00 | 39 | 1009.5 |
| 20260507200158 | 55 | 315 | 4.0 | 4.0 | 0.00 | 0.00 | 0.00 | 39 | 1009.5 |
| 20260507195704 | 55 | 303 | 3.0 | 9.0 | 0.00 | 0.00 | 0.00 | 39 | 1009.6 |
| 20260507194658 | 55 | 271 | 0.0 | 7.0 | 0.00 | 0.00 | 0.00 | 39 | 1009.6 |
| 20260507193657 | 55 | 288 | 0.0 | 6.0 | 0.00 | 0.00 | 0.00 | 39 | 1009.8 |
| 20260507193157 | 54 | 319 | 0.0 | 8.0 | 0.00 | 0.00 | 0.00 | 41 | 1009.8 |
| 20260507191658 | 54 | 337 | 7.0 | 10.0 | 0.00 | 0.00 | 0.00 | 43 | 1009.9 |
| 20260507191159 | 54 | 8 | 0.0 | 7.0 | 0.00 | 0.00 | 0.00 | 46 | 1009.9 |
| 20260507190658 | 53 | 344 | 7.0 | 7.0 | 0.00 | 0.00 | 0.00 | 42 | 1009.9 |
| 20260507190158 | 53 | 341 | 9.0 | 12.0 | 0.00 | 0.00 | 0.00 | 43 | 1010.0 |
| 20260507185158 | 53 | 351 | 9.0 | 11.0 | 0.00 | 0.00 | 0.00 | 40 | 1010.0 |
| 20260507184657 | 53 | 336 | 3.0 | 8.0 | 0.00 | 0.00 | 0.00 | 43 | 1010.1 |
| 20260507184157 | 53 | 171 | 0.0 | 3.0 | 0.00 | 0.00 | 0.00 | 44 | 1010.1 |
| 20260507183158 | 53 | 347 | 6.0 | 8.0 | 0.00 | 0.00 | 0.00 | 44 | 1010.2 |
| 20260507182704 | 53 | 9 | 3.0 | 5.0 | 0.00 | 0.00 | 0.00 | 43 | 1010.3 |
| 20260507182200 | 54 | 358 | 0.0 | 5.0 | 0.00 | 0.00 | 0.00 | 42 | 1010.2 |
| 20260507181658 | 53 | 270 | 0.0 | 5.0 | 0.00 | 0.00 | 0.00 | 42 | 1010.3 |
| 20260507181157 | 53 | 265 | 0.0 | 0.0 | 0.00 | 0.00 | 0.00 | 43 | 1010.3 |
| 20260507180657 | 53 | 271 | 0.0 | 7.0 | 0.00 | 0.00 | 0.00 | 43 | 1010.4 |
| 20260507180158 | 52 | 247 | 0.0 | 10.0 | 0.00 | 0.00 | 0.00 | 42 | 1010.4 |
| 20260507175703 | 51 | 4 | 0.0 | 6.0 | 0.00 | 0.00 | 0.00 | 45 | 1010.4 |
| 20260507175204 | 51 | 29 | 0.0 | 4.0 | 0.00 | 0.00 | 0.00 | 45 | 1010.6 |
| 20260507174658 | 52 | 285 | 6.0 | 8.0 | 0.00 | 0.00 | 0.00 | 44 | 1010.6 |
| 20260507174157 | 52 | 307 | 8.0 | 14.0 | 0.00 | 0.00 | 0.00 | 44 | 1010.7 |
| 20260507173657 | 52 | 358 | 0.0 | 9.0 | 0.00 | 0.00 | 0.00 | 42 | 1010.7 |
| 20260507172702 | 52 | 260 | 0.0 | 11.0 | 0.00 | 0.00 | 0.00 | 43 | 1010.8 |
| 20260507171757 | 52 | 282 | 0.0 | 5.0 | 0.00 | 0.00 | 0.00 | 44 | 1010.7 |
| 20260507171657 | 52 | 282 | 0.0 | 5.0 | 0.00 | 0.00 | 0.00 | 44 | 1010.7 |
| 20260507171157 | 52 | 251 | 3.0 | 8.0 | 0.00 | 0.00 | 0.00 | 45 | 1010.9 |
| 20260507170658 | 51 | 262 | 0.0 | 7.0 | 0.00 | 0.00 | 0.00 | 43 | 1011.0 |
| 20260507170157 | 51 | 340 | 3.0 | 12.0 | 0.00 | 0.00 | 0.00 | 46 | 1011.0 |
| 20260507165657 | 52 | 338 | 4.0 | 6.0 | 0.00 | 0.00 | 0.00 | 46 | 1011.1 |
| 20260507165158 | 52 | 284 | 0.0 | 7.0 | 0.00 | 0.00 | 0.00 | 45 | 1011.1 |
| 20260507163657 | 51 | 292 | 9.0 | 9.0 | 0.00 | 0.00 | 0.00 | 47 | 1011.2 |
| 20260507162200 | 50 | 275 | 0.0 | 5.0 | 0.00 | 0.00 | 0.00 | 46 | 1011.4 |
| 20260507161657 | 50 | 347 | 9.0 | 12.0 | 0.00 | 0.00 | 0.00 | 47 | 1011.5 |
| 20260507161157 | 50 | 309 | 0.0 | 8.0 | 0.00 | 0.00 | 0.00 | 49 | 1011.5 |
| 20260507160657 | 50 | 32 | 2.0 | 11.0 | 0.00 | 0.00 | 0.00 | 49 | 1011.5 |
| 20260507160158 | 50 | 268 | 6.0 | 7.0 | 0.00 | 0.00 | 0.00 | 53 | 1011.5 |
| 20260507155704 | 49 | 2 | 0.0 | 6.0 | 0.00 | 0.00 | 0.00 | 54 | 1011.6 |
| 20260507155159 | 49 | 347 | 0.0 | 4.0 | 0.00 | 0.00 | 0.00 | 54 | 1011.5 |
| 20260507154658 | 49 | 337 | 0.0 | 7.0 | 0.00 | 0.00 | 0.00 | 53 | 1011.5 |
| 20260507154158 | 49 | 307 | 0.0 | 4.0 | 0.00 | 0.00 | 0.00 | 53 | 1011.6 |
| 20260507153657 | 48 | 334 | 3.0 | 7.0 | 0.00 | 0.00 | 0.00 | 54 | 1011.6 |
| 20260507153157 | 48 | 338 | 0.0 | 4.0 | 0.00 | 0.00 | 0.00 | 53 | 1011.7 |
| 20260507152657 | 48 | 329 | 0.0 | 0.0 | 0.00 | 0.00 | 0.00 | 56 | 1011.7 |
| 20260507152158 | 48 | 333 | 0.0 | 8.0 | 0.00 | 0.00 | 0.00 | 54 | 1011.7 |
| 20260507151657 | 48 | 358 | 0.0 | 7.0 | 0.00 | 0.00 | 0.00 | 54 | 1011.8 |
| 20260507151157 | 48 | 275 | 3.0 | 7.0 | 0.00 | 0.00 | 0.00 | 53 | 1011.8 |
| 20260507150658 | 49 | 153 | 0.0 | 0.0 | 0.00 | 0.00 | 0.00 | 53 | 1011.8 |
| 20260507150201 | 49 | 149 | 0.0 | 2.0 | 0.00 | 0.00 | 0.00 | 52 | 1011.7 |
| 20260507145658 | 49 | 241 | 0.0 | 0.0 | 0.00 | 0.00 | 0.00 | 56 | 1011.8 |
| 20260507145158 | 48 | 241 | 0.0 | 0.0 | 0.00 | 0.00 | 0.00 | 56 | 1011.8 |
| 20260507144700 | 47 | 241 | 0.0 | 0.0 | 0.00 | 0.00 | 0.00 | 57 | 1011.9 |
| 20260507144157 | 47 | 241 | 0.0 | 5.0 | 0.00 | 0.00 | 0.00 | 56 | 1012.0 |
| 20260507143657 | 47 | 260 | 0.0 | 0.0 | 0.00 | 0.00 | 0.00 | 58 | 1012.0 |
| 20260507143157 | 46 | 260 | 0.0 | 0.0 | 0.00 | 0.00 | 0.00 | 59 | 1012.0 |
| 20260507142657 | 46 | 260 | 0.0 | 0.0 | 0.00 | 0.00 | 0.00 | 58 | 1012.0 |
| 20260507142158 | 47 | 324 | 4.0 | 6.0 | 0.00 | 0.00 | 0.00 | 58 | 1012.1 |
| 20260507141658 | 46 | 324 | 0.0 | 0.0 | 0.00 | 0.00 | 0.00 | 60 | 1012.2 |
| 20260507141158 | 46 | 324 | 0.0 | 0.0 | 0.00 | 0.00 | 0.00 | 63 | 1012.2 |
| 20260507140658 | 46 | 324 | 0.0 | 0.0 | 0.00 | 0.00 | 0.00 | 66 | 1012.2 |
| 20260507140200 | 45 | 345 | 0.0 | 0.0 | 0.00 | 0.00 | 0.00 | 70 | 1012.2 |
| 20260507135658 | 44 | 345 | 0.0 | 0.0 | 0.00 | 0.00 | 0.00 | 71 | 1012.2 |
| 20260507135159 | 44 | 345 | 0.0 | 0.0 | 0.00 | 0.00 | 0.00 | 71 | 1012.3 |
| 20260507134658 | 44 | 341 | 0.0 | 3.0 | 0.00 | 0.00 | 0.00 | 72 | 1012.3 |
| 20260507134157 | 44 | 340 | 2.0 | 4.0 | 0.00 | 0.00 | 0.00 | 73 | 1012.3 |
| 20260507133657 | 44 | 329 | 0.0 | 3.0 | 0.00 | 0.00 | 0.00 | 76 | 1012.3 |
| 20260507133158 | 43 | 317 | 0.0 | 0.0 | 0.00 | 0.00 | 0.00 | 79 | 1012.3 |
| 20260507132657 | 43 | 317 | 0.0 | 0.0 | 0.00 | 0.00 | 0.00 | 80 | 1012.3 |
| 20260507132306 | 42 | 317 | 0.0 | 0.0 | 0.00 | 0.00 | 0.00 | 84 | 1012.4 |
| 20260507132159 | 42 | 317 | 0.0 | 0.0 | 0.00 | 0.00 | 0.00 | 84 | 1012.4 |
| 20260507131658 | 41 | 317 | 0.0 | 0.0 | 0.00 | 0.00 | 0.00 | 85 | 1012.4 |
| 20260507131159 | 40 | 317 | 0.0 | 0.0 | 0.00 | 0.00 | 0.00 | 87 | 1012.4 |
| 20260507130657 | 40 | 317 | 0.0 | 0.0 | 0.00 | 0.00 | 0.00 | 88 | 1012.4 |
| 20260507130157 | 39 | 317 | 0.0 | 0.0 | 0.00 | 0.00 | 0.00 | 90 | 1012.4 |
| 20260507125657 | 38 | 317 | 0.0 | 0.0 | 0.00 | 0.00 | 0.00 | 90 | 1012.4 |
| 20260507124657 | 36 | 317 | 0.0 | 0.0 | 0.00 | 0.00 | 0.00 | 92 | 1012.4 |
| 20260507124157 | 35 | 317 | 0.0 | 0.0 | 0.00 | 0.00 | 0.00 | 93 | 1012.5 |
| 20260507123657 | 34 | 317 | 0.0 | 0.0 | 0.00 | 0.00 | 0.00 | 94 | 1012.7 |
| 20260507123158 | 33 | 317 | 0.0 | 0.0 | 0.00 | 0.00 | 0.00 | 95 | 1012.7 |
| 20260507122657 | 33 | 317 | 0.0 | 0.0 | 0.00 | 0.00 | 0.00 | 96 | 1012.7 |
| 20260507121657 | 32 | 317 | 0.0 | 0.0 | 0.00 | 0.00 | 0.00 | 97 | 1012.8 |
| 20260507120657 | 31 | 317 | 0.0 | 0.0 | 0.00 | 0.00 | 0.00 | 97 | 1012.7 |
| 20260507120200 | 31 | 317 | 0.0 | 0.0 | 0.00 | 0.00 | 0.00 | 97 | 1012.7 |
| 20260507115657 | 31 | 317 | 0.0 | 0.0 | 0.00 | 0.00 | 0.00 | 97 | 1012.7 |
| 20260507115243 | 30 | 317 | 0.0 | 0.0 | 0.00 | 0.00 | 0.00 | 97 | 1012.7 |
| 20260507115158 | 30 | 317 | 0.0 | 0.0 | 0.00 | 0.00 | 0.00 | 97 | 1012.7 |
| 20260507114658 | 30 | 317 | 0.0 | 0.0 | 0.00 | 0.00 | 0.00 | 98 | 1012.6 |
| 20260507114157 | 30 | 317 | 0.0 | 0.0 | 0.00 | 0.00 | 0.00 | 98 | 1012.6 |
| 20260507113657 | 30 | 317 | 0.0 | 0.0 | 0.00 | 0.00 | 0.00 | 98 | 1012.6 |
| 20260507112658 | 29 | 317 | 0.0 | 0.0 | 0.00 | 0.00 | 0.00 | 98 | 1012.5 |
| 20260507112158 | 29 | 317 | 0.0 | 0.0 | 0.00 | 0.00 | 0.00 | 98 | 1012.5 |
| 20260507111657 | 29 | 317 | 0.0 | 0.0 | 0.00 | 0.00 | 0.00 | 97 | 1012.4 |
| 20260507111157 | 29 | 317 | 0.0 | 0.0 | 0.00 | 0.00 | 0.00 | 97 | 1012.5 |
| 20260507110657 | 29 | 317 | 0.0 | 0.0 | 0.00 | 0.00 | 0.00 | 97 | 1012.4 |
| 20260507110157 | 29 | 317 | 0.0 | 0.0 | 0.00 | 0.00 | 0.00 | 96 | 1012.5 |
| 20260507105657 | 29 | 317 | 0.0 | 0.0 | 0.00 | 0.00 | 0.00 | 96 | 1012.6 |